Location: Cz?stochówka
(50.8142°N, 19.0915°E)
Time: 13:46:27
(UTC+00:00)

Cosmos 2366 rocket - Pass Details

Date: 18 April 2026
Orbit: 954 x 996 km, 82.9° (Epoch: 16 May)

Event Time Altitude Azimuth Distance (km) Brightness Sun altitude
Rises 19:04:15 0° 195° (SSW) 3,634 6.8 -12.1°
Reaches altitude 10° 19:06:45 10° 197° (SSW) 2,687 6.1 -12.5°
Maximum altitude 19:12:53 72° 282° (WNW) 1,007 4.3 -13.2°
Drops below altitude 10° 19:19:03 10° 7° (N) 2,695 6.7 -14.0°
Sets 19:21:34 0° 9° (N) 3,646 7.4 -14.3°
